Jolteon 20

Jolteon (20)
0 Ratings
Card # / Rarity 20 / Rare
Type / Stage Lightning / Stage 1
Attacks

[2] Quick Attack (10+)
Flip a coin. If heads, this attack does 10 damage plus 20 more damage; if tails, this attack does 10 damage.

[1LL] Pin Missile (20x)
Flip 4 coins. This attack does 20 damage times the number of heads.

Other F / None / 1
Set Jungle
Character(s) Jolteon /
Current Price

$6.72 -15.37%

Last 7 Days 0.60%
Last 30 Days 0%
YTD -2.18%
JUNGLE
TOP 10

PRICE HISTORY


Date
Price
Trend
2023-01-29 08:00:00<.span> Jan 29th, 2023 8AM $6.72 -
2023-01-29 06:00:00<.span> Jan 29th, 2023 6AM $6.72 -
2023-01-29 04:00:00<.span> Jan 29th, 2023 4AM $6.72 -
2023-01-29 02:00:00<.span> Jan 29th, 2023 2AM $6.72 -
2023-01-29 00:00:00<.span> Jan 29th, 2023 12AM $6.72 -
2023-01-28 16:00:00<.span> Jan 28th, 2023 4PM $6.70 $-0.02
2023-01-28 14:00:00<.span> Jan 28th, 2023 2PM $6.70 -
2023-01-28 12:00:00<.span> Jan 28th, 2023 12PM $6.70 -
2023-01-28 10:00:00<.span> Jan 28th, 2023 10AM $6.70 -
2023-01-28 08:00:00<.span> Jan 28th, 2023 8AM $6.70 -
2023-01-28 06:00:00<.span> Jan 28th, 2023 6AM $6.70 -
2023-01-28 04:00:00<.span> Jan 28th, 2023 4AM $6.70 -
2023-01-28 02:00:00<.span> Jan 28th, 2023 2AM $6.70 -
2023-01-25 22:00:00<.span> Jan 25th, 2023 10PM $6.61 $-0.09
2023-01-25 20:00:00<.span> Jan 25th, 2023 8PM $6.61 -
2023-01-25 18:00:00<.span> Jan 25th, 2023 6PM $6.61 -
2023-01-25 16:00:00<.span> Jan 25th, 2023 4PM $6.61 -
2023-01-25 14:00:00<.span> Jan 25th, 2023 2PM $6.61 -
2023-01-25 12:00:00<.span> Jan 25th, 2023 12PM $6.61 -
2023-01-25 10:00:00<.span> Jan 25th, 2023 10AM $6.61 -
2023-01-25 08:00:00<.span> Jan 25th, 2023 8AM $6.70 $0.09
2023-01-25 06:00:00<.span> Jan 25th, 2023 6AM $6.70 -
2023-01-25 04:00:00<.span> Jan 25th, 2023 4AM $6.70 -
2023-01-25 02:00:00<.span> Jan 25th, 2023 2AM $6.70 -
2023-01-24 08:00:00<.span> Jan 24th, 2023 8AM $6.68 $-0.02
2023-01-20 06:00:00<.span> Jan 20th, 2023 6AM $6.65 $-0.03
2023-01-20 04:00:00<.span> Jan 20th, 2023 4AM $6.65 -
2023-01-20 02:00:00<.span> Jan 20th, 2023 2AM $6.65 -
2023-01-20 00:00:00<.span> Jan 20th, 2023 12AM $6.65 -
2023-01-19 22:00:00<.span> Jan 19th, 2023 10PM $6.65 -
2023-01-19 20:00:00<.span> Jan 19th, 2023 8PM $6.65 -
2023-01-19 18:00:00<.span> Jan 19th, 2023 6PM $6.65 -
2023-01-19 16:00:00<.span> Jan 19th, 2023 4PM $6.65 -
2023-01-19 14:00:00<.span> Jan 19th, 2023 2PM $6.65 -
2023-01-19 12:00:00<.span> Jan 19th, 2023 12PM $6.65 -
2023-01-19 10:00:00<.span> Jan 19th, 2023 10AM $6.65 -
2023-01-19 08:00:00<.span> Jan 19th, 2023 8AM $6.65 -
2023-01-19 06:00:00<.span> Jan 19th, 2023 6AM $6.65 -
2023-01-19 04:00:00<.span> Jan 19th, 2023 4AM $6.65 -
2023-01-19 02:00:00<.span> Jan 19th, 2023 2AM $6.65 -
2023-01-19 00:00:00<.span> Jan 19th, 2023 12AM $6.65 -
2023-01-18 22:00:00<.span> Jan 18th, 2023 10PM $6.65 -
2023-01-18 20:00:00<.span> Jan 18th, 2023 8PM $6.65 -
2023-01-18 18:00:00<.span> Jan 18th, 2023 6PM $6.65 -
2023-01-18 16:00:00<.span> Jan 18th, 2023 4PM $6.65 -
2023-01-18 14:00:00<.span> Jan 18th, 2023 2PM $6.65 -
2023-01-18 12:00:00<.span> Jan 18th, 2023 12PM $6.65 -
2023-01-18 10:00:00<.span> Jan 18th, 2023 10AM $6.65 -
2023-01-18 08:00:00<.span> Jan 18th, 2023 8AM $6.65 -
2023-01-18 06:00:00<.span> Jan 18th, 2023 6AM $6.65 -
2023-01-18 04:00:00<.span> Jan 18th, 2023 4AM $6.65 -
2023-01-18 02:00:00<.span> Jan 18th, 2023 2AM $6.65 -
2023-01-18 00:00:00<.span> Jan 18th, 2023 12AM $6.66 $0.01
2023-01-14 04:00:00<.span> Jan 14th, 2023 4AM $6.65 $-0.01
2023-01-10 08:00:00<.span> Jan 10th, 2023 8AM $6.62 $-0.03
2023-01-10 06:00:00<.span> Jan 10th, 2023 6AM $6.62 -
2023-01-10 04:00:00<.span> Jan 10th, 2023 4AM $6.62 -
2023-01-08 16:00:00<.span> Jan 8th, 2023 4PM $6.78 $0.16
2023-01-06 20:00:00<.span> Jan 6th, 2023 8PM $6.94 $0.16
2023-01-05 04:00:00<.span> Jan 5th, 2023 4AM $6.92 $-0.02
2023-01-05 02:00:00<.span> Jan 5th, 2023 2AM $6.92 -
2023-01-05 00:00:00<.span> Jan 5th, 2023 12AM $6.92 -
2023-01-04 22:00:00<.span> Jan 4th, 2023 10PM $6.92 -
2023-01-04 20:00:00<.span> Jan 4th, 2023 8PM $6.92 -
2023-01-04 18:00:00<.span> Jan 4th, 2023 6PM $6.92 -
2023-01-04 16:00:00<.span> Jan 4th, 2023 4PM $6.92 -
2023-01-04 14:00:00<.span> Jan 4th, 2023 2PM $6.92 -
2023-01-04 12:00:00<.span> Jan 4th, 2023 12PM $6.92 -
2023-01-04 10:00:00<.span> Jan 4th, 2023 10AM $6.92 -
2023-01-04 08:00:00<.span> Jan 4th, 2023 8AM $6.92 -
2023-01-04 06:00:00<.span> Jan 4th, 2023 6AM $6.92 -
2023-01-04 04:00:00<.span> Jan 4th, 2023 4AM $6.92 -
2023-01-04 02:00:00<.span> Jan 4th, 2023 2AM $6.92 -
2023-01-04 00:00:00<.span> Jan 4th, 2023 12AM $6.92 -
2023-01-03 22:00:00<.span> Jan 3rd, 2023 10PM $6.92 -
2023-01-03 20:00:00<.span> Jan 3rd, 2023 8PM $6.96 $0.04
2023-01-03 18:00:00<.span> Jan 3rd, 2023 6PM $6.96 -
2023-01-03 16:00:00<.span> Jan 3rd, 2023 4PM $6.96 -
2023-01-03 14:00:00<.span> Jan 3rd, 2023 2PM $6.96 -
2023-01-03 12:00:00<.span> Jan 3rd, 2023 12PM $6.96 -
2023-01-03 10:00:00<.span> Jan 3rd, 2023 10AM $6.96 -
2023-01-03 08:00:00<.span> Jan 3rd, 2023 8AM $6.96 -
2023-01-03 06:00:00<.span> Jan 3rd, 2023 6AM $6.96 -
2023-01-03 04:00:00<.span> Jan 3rd, 2023 4AM $6.96 -
2023-01-03 02:00:00<.span> Jan 3rd, 2023 2AM $6.86 $-0.10
2023-01-03 00:00:00<.span> Jan 3rd, 2023 12AM $6.86 -
2023-01-02 22:00:00<.span> Jan 2nd, 2023 10PM $6.86 -
2023-01-02 20:00:00<.span> Jan 2nd, 2023 8PM $6.86 -
2023-01-02 18:00:00<.span> Jan 2nd, 2023 6PM $6.86 -
2023-01-02 16:00:00<.span> Jan 2nd, 2023 4PM $6.86 -
2023-01-02 14:00:00<.span> Jan 2nd, 2023 2PM $6.86 -
2023-01-02 12:00:00<.span> Jan 2nd, 2023 12PM $6.87 $0.01
2023-01-02 10:00:00<.span> Jan 2nd, 2023 10AM $6.87 -
2023-01-02 08:00:00<.span> Jan 2nd, 2023 8AM $6.87 -
2023-01-02 06:00:00<.span> Jan 2nd, 2023 6AM $6.87 -
2023-01-02 04:00:00<.span> Jan 2nd, 2023 4AM $6.87 -
2023-01-02 02:00:00<.span> Jan 2nd, 2023 2AM $6.87 -
2023-01-02 00:00:00<.span> Jan 2nd, 2023 12AM $6.87 -
2023-01-01 22:00:00<.span> Jan 1st, 2023 10PM $6.87 -
2023-01-01 20:00:00<.span> Jan 1st, 2023 8PM $6.87 -

Jolteon (20) Pokemon Products

Checkout the latest Pokemon Card Products for Jolteon (20). Complete with prices and trends.

Triple Effect Tin [Jolteon]

Triple Effect Tin Jolteon

— 0%

Jolteon GX Special Collection

Jolteon GX Special Collection

$0.00-100%

Elemental Power Tin [Jolteon GX]

Elemental Power Tin Jolteon GX

$51.6665%

Battle Styles 3 Pack Blister [Jolteon]

Battle Styles 3 Pack Blister Jolteon

$15.3012%

Name
Set
Rarity
Price
Trend
Jolteon Jolteon Jolteon Ancient Origins Holo Rare $ 1.65 -1.20%
Jolteon (20) Jolteon 20 Jolteon 20 Jungle Rare $ 6.72 1.66%
Jolteon EX Jolteon EX Jolteon EX Generations Ultra Rare $ 11.05 0.27%
Jolteon EX Jolteon EX Jolteon EX Alternate Art Promos Promo $ 8.41 -0.12%
Jolteon GX - SM173 (SM Black Star Promo) Jolteon GX SM173 SM Black Star Promo Jolteon GX SM173 SM Black Star Promo Jumbo Cards Promo $ 10.62 -0.38%
Jolteon GX - SM173 Jolteon GX SM173 Jolteon GX SM173 Sun & Moon Promos Promo $ 2.92 2.10%
Jolteon - 26/98 (Cosmos Holo) Jolteon 26 98 Cosmos Holo Jolteon 26 98 Cosmos Holo Miscellaneous Cards & Products Promo $ 2.76 -0.72%
Jolteon Jolteon Jolteon Hidden Fates Rare $ 0.53 8.16%
Jolteon Jolteon Jolteon Cosmic Eclipse Uncommon $ 0.31 -3.13%
Jolteon Jolteon Jolteon Vivid Voltage Rare $ 0.20 -4.76%
Jolteon - SWSH094 Jolteon SWSH094 Jolteon SWSH094 Sword & Shield Promo Cards Promo $ 1.19 -0.83%
Jolteon VMAX Jolteon VMAX Jolteon VMAX Evolving Skies Ultra Rare $ 3.43 3.31%
Jolteon V (Full Art) Jolteon V Full Art Jolteon V Full Art Evolving Skies Ultra Rare $ 11.72 0.34%
Jolteon V - SWSH151 Jolteon V SWSH151 Jolteon V SWSH151 Sword & Shield Promo Cards Promo $ 2.03 0.50%
Jolteon - 047/185 (Cosmos Holo) Jolteon 047 185 Cosmos Holo Jolteon 047 185 Cosmos Holo Miscellaneous Cards & Products Promo $ 1.34 0.75%
Jolteon V - SWSH183 Jolteon V SWSH183 Jolteon V SWSH183 Sword & Shield Promo Cards Promo $ 12.03 -0.50%
Jolteon VMAX - SWSH184 Jolteon VMAX SWSH184 Jolteon VMAX SWSH184 Sword & Shield Promo Cards Promo $ 15.87 -0.38%
Jolteon Jolteon Jolteon Brilliant Stars Trainer Gallery Ultra Rare $ 2.78 2.58%
Jolteon (4) Jolteon 4 Jolteon 4 Jungle Holo Rare $ 43.12 0.19%
Dark Jolteon Dark Jolteon Dark Jolteon Team Rocket Uncommon $ 3.15 -0.63%
Jolteon Jolteon Jolteon Sandstorm Holo Rare $ 34.93 -9.83%
Jolteon (H12) Jolteon H12 Jolteon H12 Skyridge Holo Rare $ 233.40 -0.38%
Jolteon Jolteon Jolteon Skyridge Rare $ 17.70 -3.33%
Jolteon Jolteon Jolteon Legendary Collection Holo Rare $ 133.48 -0.37%
Jolteon Jolteon Jolteon Unseen Forces Holo Rare $ 27.49 -2.55%
Jolteon Jolteon Jolteon POP Series 3 Rare $ 8.21 9.91%
Jolteon Jolteon Jolteon POP Series 3 Rare $ 8.21 9.91%
Jolteon Jolteon Jolteon Majestic Dawn Rare $ 27.97 0.36%
Jolteon Jolteon Jolteon Rising Rivals Rare $ 4.62 0.22%
Jolteon Jolteon Jolteon Undaunted Uncommon $ 2.55 -11.46%
Jolteon Jolteon Jolteon Call of Legends Uncommon $ 1.57 11.35%
Jolteon Jolteon Jolteon Dark Explorers Uncommon $ 2.60 -9.72%
Jolteon Jolteon Jolteon Black and White Promos Holo Rare $ 18.92 -0.37%
Jolteon (Delta Species) Jolteon Delta Species Jolteon Delta Species Delta Species Holo Rare $ 41.64 -1.09%
Jolteon (Team Plasma) Jolteon Team Plasma Jolteon Team Plasma Plasma Freeze Uncommon $ 13.13 8.33%
Jolteon Star Jolteon Star Jolteon Star Power Keepers Ultra Rare $ 399.99 0.00%
Jolteon ex Jolteon ex Jolteon ex Delta Species Ultra Rare $ 124.48 -1.45%
Light Jolteon Light Jolteon Light Jolteon Neo Destiny Uncommon $ 59.82 -1.11%
Lt. Surge's Jolteon Lt Surges Jolteon Lt Surges Jolteon Gym Challenge Rare $ 18.37 2.34%
Jolteon

Jolteon
Ancient Origins
$ 1.65 — -1.20%

Jolteon (20)

Jolteon 20
Jungle
$ 6.72 — 1.66%

Jolteon EX

Jolteon EX
Generations
$ 11.05 — 0.27%

Jolteon EX

Jolteon EX
Alternate Art Promos
$ 8.41 — -0.12%

Jolteon

Jolteon
Hidden Fates
$ 0.53 — 8.16%

Jolteon

Jolteon
Cosmic Eclipse
$ 0.31 — -3.13%

Jolteon

Jolteon
Vivid Voltage
$ 0.20 — -4.76%

Jolteon VMAX

Jolteon VMAX
Evolving Skies
$ 3.43 — 3.31%

Jolteon (4)

Jolteon 4
Jungle
$ 43.12 — 0.19%

Dark Jolteon

Dark Jolteon
Team Rocket
$ 3.15 — -0.63%

Jolteon

Jolteon
Sandstorm
$ 34.93 — -9.83%

Jolteon (H12)

Jolteon H12
Skyridge
$ 233.40 — -0.38%

Jolteon

Jolteon
Skyridge
$ 17.70 — -3.33%

Jolteon

Jolteon
Legendary Collection
$ 133.48 — -0.37%

Jolteon

Jolteon
Unseen Forces
$ 27.49 — -2.55%

Jolteon

Jolteon
POP Series 3
$ 8.21 — 9.91%

Jolteon

Jolteon
POP Series 3
$ 8.21 — 9.91%

Jolteon

Jolteon
Majestic Dawn
$ 27.97 — 0.36%

Jolteon

Jolteon
Rising Rivals
$ 4.62 — 0.22%

Jolteon

Jolteon
Undaunted
$ 2.55 — -11.46%

Jolteon

Jolteon
Call of Legends
$ 1.57 — 11.35%

Jolteon

Jolteon
Dark Explorers
$ 2.60 — -9.72%

Jolteon

Jolteon
Black and White Promos
$ 18.92 — -0.37%

Jolteon Star

Jolteon Star
Power Keepers
$ 399.99 — 0.00%

Jolteon ex

Jolteon ex
Delta Species
$ 124.48 — -1.45%

Light Jolteon

Light Jolteon
Neo Destiny
$ 59.82 — -1.11%

Lt. Surge's Jolteon

Lt Surges Jolteon
Gym Challenge
$ 18.37 — 2.34%